STARLINK-3917 (52588 NORAD) Tracking and Keplerian Element Data

This shows tracking and keplerian element data for the satellite.

Feedback or suggestion? Click here.




ElementValue
Catalog52588
NameSTARLINK-3917
Epoch Orbit981
Epoch Day192.91667824
Epoch Year2022
RAAN2.4826
Inclination53.2174
Eccentricity0.000138
Argument of Perigee47.3301
Mean Anonmoly1.7093
Mean Motion15.49576574
Decay Rate-0.01054852
L11 52588U 22051BE 22192.91667824 -.01054852 00000+0 -20686-1 0 9996
L22 52588 53.2174 2.4826 0001380 47.3301 1.7093 15.49576574 9815

Live tracking and technical data element details for STARLINK-3917 (NORAD 52588). STARLINK-3917 can be tracked NOW for your location showing map with azimuth and elevation plus other details from your city location.

Track the satellite on the map from your city or location and see movement details for azimuth, elevation, latitude, longitude, range, height, and movement on the map or in text.







IsCatalogInMostPopularTable: catalog: 52588, numindb: 8
Update: records affected: 1



GetName: 52588 STARLINK-3917

Hit Count: updated at: Sun, 14 Aug 2022 01:25:10 GMT